| time (UTC) | temp C | wind direction | speed KPH | gust KPH | rain 1hr cm | rain 24hr cm | rain mn cm | humidity % | barometer mb |
| 20260507081443 | 8 | 98 | 3.2 | 3.2 | 0.00 | 0.00 | 0.00 | 82 | 1012.1 |
| 20260507080941 | 8 | 80 | 3.2 | 3.2 | 0.00 | 0.00 | 0.00 | 83 | 1012.1 |
| 20260507080436 | 9 | 136 | 1.6 | 4.8 | 0.00 | 0.00 | 0.00 | 84 | 1012.0 |
| 20260507075932 | 9 | 37 | 3.2 | 3.2 | 0.00 | 0.00 | 0.00 | 81 | 1012.0 |
| 20260507075428 | 10 | 70 | 3.2 | 4.8 | 0.00 | 0.00 | 0.00 | 78 | 1012.5 |
| 20260507074925 | 10 | 84 | 1.6 | 3.2 | 0.00 | 0.00 | 0.00 | 73 | 1012.2 |
| 20260507074422 | 10 | 97 | 4.8 | 4.8 | 0.00 | 0.00 | 0.00 | 73 | 1012.0 |
| 20260507073920 | 10 | 103 | 4.8 | 4.8 | 0.00 | 0.00 | 0.00 | 75 | 1012.3 |
| 20260507073416 | 9 | 74 | 8.0 | 8.0 | 0.00 | 0.00 | 0.00 | 80 | 1012.2 |
| 20260507072913 | 9 | 91 | 3.2 | 4.8 | 0.00 | 0.00 | 0.00 | 86 | 1012.3 |
| 20260507072411 | 10 | 115 | 1.6 | 3.2 | 0.00 | 0.00 | 0.00 | 89 | 1012.2 |
| 20260507071908 | 10 | 88 | 1.6 | 3.2 | 0.00 | 0.00 | 0.00 | 89 | 1012.0 |
| 20260507071405 | 10 | 59 | 1.6 | 3.2 | 0.00 | 0.00 | 0.00 | 89 | 1012.3 |
| 20260507070901 | 10 | 68 | 1.6 | 3.2 | 0.00 | 0.00 | 0.00 | 87 | 1012.4 |
| 20260507070359 | 10 | 49 | 4.8 | 4.8 | 0.00 | 0.00 | 0.00 | 86 | 1012.4 |
| 20260507065855 | 10 | 56 | 3.2 | 3.2 | 0.00 | 0.00 | 0.00 | 84 | 1012.4 |
| 20260507065352 | 10 | 59 | 3.2 | 3.2 | 0.00 | 0.00 | 0.00 | 84 | 1012.5 |
| 20260507064849 | 10 | 57 | 3.2 | 6.4 | 0.00 | 0.00 | 0.00 | 84 | 1012.3 |
| 20260507064347 | 10 | 64 | 3.2 | 3.2 | 0.00 | 0.00 | 0.00 | 86 | 1012.5 |
| 20260507063845 | 10 | 80 | 1.6 | 6.4 | 0.00 | 0.00 | 0.00 | 88 | 1012.5 |
| 20260507063341 | 10 | 78 | 4.8 | 4.8 | 0.00 | 0.00 | 0.00 | 88 | 1012.2 |
| 20260507062838 | 10 | 63 | 0.0 | 3.2 | 0.00 | 0.00 | 0.00 | 88 | 1012.5 |
| 20260507062335 | 10 | 40 | 3.2 | 3.2 | 0.00 | 0.00 | 0.00 | 87 | 1012.4 |
| 20260507061833 | 10 | 63 | 3.2 | 4.8 | 0.00 | 0.00 | 0.00 | 85 | 1012.4 |
| 20260507061331 | 10 | 79 | 4.8 | 9.7 | 0.00 | 0.00 | 0.00 | 86 | 1012.3 |
| 20260507060829 | 10 | 181 | 3.2 | 3.2 | 0.00 | 0.00 | 0.00 | 90 | 1012.4 |
| 20260507060325 | 10 | 57 | 3.2 | 4.8 | 0.00 | 0.00 | 0.00 | 90 | 1012.1 |
| 20260507055822 | 10 | 46 | 3.2 | 3.2 | 0.00 | 0.00 | 0.00 | 90 | 1012.2 |
| 20260507055317 | 10 | 69 | 3.2 | 3.2 | 0.00 | 0.00 | 0.00 | 89 | 1012.0 |
| 20260507054814 | 10 | 40 | 3.2 | 3.2 | 0.00 | 0.00 | 0.00 | 89 | 1012.2 |
| 20260507054310 | 10 | 98 | 0.0 | 3.2 | 0.00 | 0.00 | 0.00 | 88 | 1012.1 |
| 20260507053808 | 10 | 44 | 0.0 | 3.2 | 0.00 | 0.00 | 0.00 | 89 | 1012.1 |
| 20260507053306 | 10 | 86 | 4.8 | 6.4 | 0.00 | 0.00 | 0.00 | 89 | 1012.2 |
| 20260507052805 | 10 | 61 | 3.2 | 4.8 | 0.00 | 0.00 | 0.00 | 88 | 1011.7 |
| 20260507052300 | 11 | 42 | 0.0 | 3.2 | 0.00 | 0.00 | 0.00 | 89 | 1012.0 |
| 20260507051759 | 11 | 88 | 3.2 | 3.2 | 0.00 | 0.00 | 0.00 | 88 | 1011.9 |
| 20260507051255 | 11 | 83 | 3.2 | 4.8 | 0.00 | 0.00 | 0.00 | 87 | 1012.1 |
| 20260507050752 | 11 | 10 | 3.2 | 6.4 | 0.00 | 0.00 | 0.00 | 88 | 1012.2 |
| 20260507050249 | 11 | 112 | 1.6 | 3.2 | 0.00 | 0.00 | 0.00 | 90 | 1012.2 |
| 20260507045746 | 11 | 0 | 0.0 | 4.8 | 0.00 | 0.00 | 0.00 | 91 | 1012.0 |
| 20260507045242 | 11 | 69 | 3.2 | 4.8 | 0.00 | 0.00 | 0.00 | 90 | 1011.8 |
| 20260507044739 | 11 | 88 | 3.2 | 6.4 | 0.00 | 0.00 | 0.00 | 89 | 1012.1 |
| 20260507044235 | 11 | 65 | 3.2 | 4.8 | 0.00 | 0.00 | 0.00 | 89 | 1012.1 |
| 20260507043732 | 11 | 126 | 1.6 | 6.4 | 0.00 | 0.00 | 0.00 | 88 | 1012.3 |
| 20260507043229 | 11 | 141 | 1.6 | 3.2 | 0.00 | 0.00 | 0.00 | 87 | 1012.0 |
| 20260507042725 | 11 | 163 | 1.6 | 3.2 | 0.00 | 0.00 | 0.00 | 85 | 1012.0 |
| 20260507042220 | 12 | 92 | 4.8 | 6.4 | 0.00 | 0.00 | 0.00 | 83 | 1011.9 |
| 20260507041718 | 12 | 80 | 0.0 | 8.0 | 0.00 | 0.00 | 0.00 | 80 | 1011.7 |
| 20260507041214 | 12 | 105 | 6.4 | 6.4 | 0.00 | 0.00 | 0.00 | 79 | 1011.8 |
| 20260507040711 | 12 | 93 | 4.8 | 4.8 | 0.00 | 0.00 | 0.00 | 78 | 1011.7 |
| 20260507040207 | 12 | 95 | 4.8 | 6.4 | 0.00 | 0.00 | 0.00 | 78 | 1011.7 |
| 20260507035703 | 12 | 71 | 3.2 | 9.7 | 0.00 | 0.00 | 0.00 | 78 | 1011.7 |
| 20260507035159 | 12 | 105 | 3.2 | 11.3 | 0.00 | 0.00 | 0.00 | 78 | 1011.7 |
| 20260507034656 | 12 | 107 | 4.8 | 8.0 | 0.00 | 0.00 | 0.00 | 78 | 1011.6 |
| 20260507034154 | 12 | 83 | 3.2 | 6.4 | 0.00 | 0.00 | 0.00 | 79 | 1011.5 |
| 20260507033652 | 12 | 104 | 4.8 | 4.8 | 0.00 | 0.00 | 0.00 | 78 | 1011.5 |
| 20260507033149 | 12 | 71 | 3.2 | 9.7 | 0.00 | 0.00 | 0.00 | 76 | 1011.4 |
| 20260507032646 | 12 | 340 | 3.2 | 8.0 | 0.00 | 0.00 | 0.00 | 77 | 1011.6 |
| 20260507032142 | 12 | 123 | 3.2 | 6.4 | 0.00 | 0.00 | 0.00 | 79 | 1011.7 |
| 20260507031639 | 12 | 60 | 3.2 | 3.2 | 0.00 | 0.00 | 0.00 | 79 | 1011.8 |
| 20260507031135 | 12 | 138 | 1.6 | 4.8 | 0.00 | 0.00 | 0.00 | 78 | 1011.8 |
| 20260507030632 | 13 | 209 | 1.6 | 6.4 | 0.00 | 0.00 | 0.00 | 77 | 1011.5 |
| 20260507030130 | 13 | 130 | 3.2 | 6.4 | 0.00 | 0.00 | 0.00 | 75 | 1011.6 |
| 20260507025627 | 13 | 42 | 3.2 | 6.4 | 0.00 | 0.00 | 0.00 | 75 | 1011.8 |
| 20260507025124 | 13 | 104 | 6.4 | 6.4 | 0.00 | 0.00 | 0.00 | 76 | 1011.4 |
| 20260507024622 | 13 | 69 | 3.2 | 11.3 | 0.00 | 0.00 | 0.00 | 77 | 1011.2 |
| 20260507024119 | 13 | 111 | 6.4 | 8.0 | 0.00 | 0.00 | 0.00 | 79 | 1011.4 |
| 20260507023614 | 13 | 146 | 1.6 | 9.7 | 0.00 | 0.00 | 0.00 | 79 | 1011.5 |
| 20260507023112 | 13 | 157 | 3.2 | 12.9 | 0.00 | 0.00 | 0.00 | 80 | 1011.2 |
| 20260507022609 | 13 | 12 | 8.0 | 14.5 | 0.00 | 0.00 | 0.00 | 80 | 1011.1 |
| 20260507022104 | 13 | 106 | 6.4 | 8.0 | 0.00 | 0.00 | 0.00 | 81 | 1011.2 |
| 20260507021601 | 13 | 210 | 6.4 | 9.7 | 0.00 | 0.00 | 0.00 | 81 | 1011.1 |
| 20260507021057 | 13 | 80 | 4.8 | 6.4 | 0.00 | 0.00 | 0.00 | 81 | 1011.2 |
| 20260507020555 | 13 | 92 | 4.8 | 9.7 | 0.00 | 0.00 | 0.00 | 80 | 1011.5 |
| 20260507020051 | 13 | 119 | 3.2 | 6.4 | 0.00 | 0.00 | 0.00 | 80 | 1011.3 |
| 20260507015550 | 13 | 99 | 3.2 | 9.7 | 0.00 | 0.00 | 0.00 | 80 | 1011.2 |
| 20260507015047 | 13 | 114 | 8.0 | 8.0 | 0.00 | 0.00 | 0.00 | 82 | 1011.7 |
| 20260507014543 | 14 | 92 | 1.6 | 4.8 | 0.00 | 0.00 | 0.00 | 81 | 1011.6 |
| 20260507014039 | 14 | 95 | 6.4 | 9.7 | 0.00 | 0.00 | 0.00 | 82 | 1011.7 |
| 20260507013536 | 14 | 99 | 6.4 | 6.4 | 0.00 | 0.00 | 0.00 | 83 | 1011.3 |
| 20260507013033 | 14 | 79 | 3.2 | 4.8 | 0.00 | 0.00 | 0.00 | 84 | 1011.5 |
| 20260507012530 | 14 | 99 | 3.2 | 8.0 | 0.00 | 0.00 | 0.00 | 84 | 1011.4 |
| 20260507012026 | 14 | 103 | 4.8 | 8.0 | 0.00 | 0.00 | 0.00 | 85 | 1011.2 |
| 20260507011524 | 14 | 72 | 3.2 | 6.4 | 0.00 | 0.00 | 0.00 | 87 | 1011.2 |
| 20260507011020 | 14 | 102 | 3.2 | 4.8 | 0.00 | 0.00 | 0.00 | 88 | 1011.5 |
| 20260507010514 | 14 | 50 | 3.2 | 3.2 | 0.00 | 0.00 | 0.00 | 88 | 1011.4 |
| 20260507010011 | 14 | 72 | 3.2 | 3.2 | 0.00 | 0.00 | 0.00 | 89 | 1011.1 |
| 20260507005509 | 15 | 56 | 4.8 | 4.8 | 0.00 | 0.00 | 0.00 | 88 | 1010.9 |
| 20260507005005 | 15 | 52 | 3.2 | 4.8 | 0.00 | 0.00 | 0.00 | 86 | 1011.1 |
| 20260507004502 | 15 | 34 | 0.0 | 4.8 | 0.00 | 0.00 | 0.00 | 85 | 1011.1 |
| 20260507003959 | 15 | 33 | 3.2 | 3.2 | 0.00 | 0.00 | 0.00 | 83 | 1011.0 |
| 20260507003454 | 15 | 310 | 3.2 | 3.2 | 0.00 | 0.00 | 0.00 | 84 | 1010.7 |
| 20260507002949 | 15 | 311 | 0.0 | 3.2 | 0.00 | 0.00 | 0.00 | 87 | 1010.8 |
| 20260507002447 | 15 | 199 | 0.0 | 3.2 | 0.00 | 0.00 | 0.00 | 84 | 1010.8 |
| 20260507001943 | 15 | 266 | 0.0 | 3.2 | 0.00 | 0.00 | 0.00 | 84 | 1010.9 |
| 20260507001440 | 15 | 17 | 0.0 | 4.8 | 0.00 | 0.00 | 0.00 | 85 | 1010.9 |
| 20260507000937 | 15 | 216 | 0.0 | 4.8 | 0.00 | 0.00 | 0.00 | 85 | 1010.7 |
| 20260507000435 | 15 | 69 | 1.6 | 6.4 | 0.00 | 0.00 | 0.00 | 87 | 1010.5 |
| 20260506235928 | 15 | 214 | 0.0 | 3.2 | 0.00 | 0.00 | 0.00 | 87 | 1010.1 |
| 20260506235426 | 15 | 209 | 0.0 | 3.2 | 0.00 | 0.00 | 0.00 | 87 | 1009.9 |
| 20260506234921 | 16 | 94 | 1.6 | 3.2 | 0.00 | 0.00 | 0.00 | 86 | 1009.8 |
| 20260506234420 | 16 | 305 | 3.2 | 6.4 | 0.00 | 0.00 | 0.00 | 87 | 1009.8 |
| 20260506233917 | 16 | 153 | 3.2 | 3.2 | 0.00 | 0.00 | 0.00 | 89 | 1009.5 |
| 20260506233413 | 16 | 149 | 1.6 | 1.6 | 0.00 | 0.00 | 0.00 | 91 | 1009.7 |
| 20260506232910 | 16 | 235 | 0.0 | 6.4 | 0.00 | 0.00 | 0.00 | 92 | 1009.6 |
| 20260506232406 | 17 | 180 | 0.0 | 3.2 | 0.00 | 0.00 | 0.00 | 93 | 1009.3 |
| 20260506231902 | 17 | 77 | 0.0 | 3.2 | 0.00 | 0.00 | 0.00 | 93 | 1009.3 |
| 20260506231400 | 17 | 199 | 0.0 | 3.2 | 0.00 | 0.00 | 0.00 | 93 | 1009.3 |
| 20260506230857 | 17 | 40 | 1.6 | 3.2 | 0.00 | 0.00 | 0.00 | 93 | 1009.3 |
| 20260506230354 | 17 | 72 | 0.0 | 4.8 | 0.00 | 0.00 | 0.00 | 92 | 1009.2 |
| 20260506225850 | 17 | 50 | 3.2 | 3.2 | 0.00 | 0.00 | 0.00 | 92 | 1009.1 |
| 20260506225347 | 17 | 316 | 0.0 | 3.2 | 0.00 | 0.00 | 0.00 | 92 | 1009.5 |
| 20260506224844 | 17 | 122 | 3.2 | 3.2 | 0.00 | 0.00 | 0.00 | 92 | 1009.0 |
| 20260506224342 | 17 | 212 | 0.0 | 4.8 | 0.00 | 0.00 | 0.00 | 92 | 1009.5 |
| 20260506223838 | 17 | 146 | 0.0 | 4.8 | 0.00 | 0.00 | 0.00 | 92 | 1009.2 |
| 20260506223333 | 17 | 210 | 0.0 | 3.2 | 0.00 | 0.00 | 0.00 | 92 | 1009.0 |
| 20260506222831 | 17 | 200 | 3.2 | 6.4 | 0.00 | 0.00 | 0.00 | 92 | 1009.1 |
| 20260506222326 | 17 | 3 | 3.2 | 4.8 | 0.00 | 0.00 | 0.00 | 92 | 1009.1 |
| 20260506221824 | 17 | 31 | 0.0 | 4.8 | 0.00 | 0.00 | 0.00 | 91 | 1009.2 |
| 20260506221321 | 17 | 218 | 4.8 | 4.8 | 0.00 | 0.00 | 0.00 | 90 | 1009.0 |
| 20260506220819 | 17 | 212 | 3.2 | 4.8 | 0.00 | 0.00 | 0.00 | 90 | 1008.7 |
| 20260506220314 | 17 | 250 | 1.6 | 8.0 | 0.00 | 0.00 | 0.00 | 90 | 1008.9 |
| 20260506215810 | 17 | 236 | 4.8 | 9.7 | 0.00 | 0.00 | 0.00 | 89 | 1008.9 |
| 20260506215306 | 18 | 89 | 3.2 | 3.2 | 0.00 | 0.00 | 0.00 | 88 | 1008.6 |
| 20260506214803 | 18 | 228 | 0.0 | 6.4 | 0.00 | 0.00 | 0.00 | 87 | 1008.4 |
| 20260506214259 | 18 | 226 | 3.2 | 3.2 | 0.00 | 0.00 | 0.00 | 86 | 1008.7 |
| 20260506213758 | 18 | 297 | 3.2 | 4.8 | 0.00 | 0.00 | 0.00 | 86 | 1008.6 |
| 20260506213254 | 18 | 55 | 0.0 | 3.2 | 0.00 | 0.00 | 0.00 | 87 | 1008.4 |
| 20260506212752 | 18 | 320 | 3.2 | 3.2 | 0.00 | 0.00 | 0.00 | 86 | 1008.5 |
| 20260506212247 | 18 | 171 | 0.0 | 3.2 | 0.00 | 0.00 | 0.00 | 86 | 1008.2 |
| 20260506211743 | 18 | 313 | 3.2 | 4.8 | 0.00 | 0.00 | 0.00 | 86 | 1008.3 |
| 20260506211239 | 18 | 89 | 0.0 | 3.2 | 0.00 | 0.00 | 0.00 | 86 | 1008.3 |
| 20260506210736 | 18 | 207 | 1.6 | 6.4 | 0.00 | 0.00 | 0.00 | 85 | 1008.2 |
| 20260506210233 | 18 | 241 | 3.2 | 8.0 | 0.00 | 0.00 | 0.00 | 85 | 1008.3 |
| 20260506205730 | 18 | 245 | 3.2 | 9.7 | 0.00 | 0.00 | 0.00 | 85 | 1008.3 |
| 20260506205226 | 18 | 217 | 3.2 | 4.8 | 0.00 | 0.00 | 0.00 | 85 | 1008.3 |
| 20260506204723 | 18 | 216 | 4.8 | 8.0 | 0.00 | 0.00 | 0.00 | 85 | 1008.3 |
| 20260506204220 | 18 | 263 | 0.0 | 4.8 | 0.00 | 0.00 | 0.00 | 85 | 1007.9 |
| 20260506203719 | 18 | 226 | 3.2 | 8.0 | 0.00 | 0.00 | 0.00 | 84 | 1008.1 |
| 20260506203215 | 18 | 325 | 4.8 | 6.4 | 0.00 | 0.00 | 0.00 | 85 | 1008.3 |
| 20260506202713 | 18 | 207 | 8.0 | 11.3 | 0.00 | 0.00 | 0.00 | 85 | 1008.2 |
| 20260506202209 | 18 | 223 | 14.5 | 14.5 | 0.00 | 0.00 | 0.00 | 85 | 1008.2 |
| 20260506201706 | 18 | 210 | 3.2 | 12.9 | 0.00 | 0.00 | 0.00 | 85 | 1008.2 |
| 20260506201203 | 18 | 199 | 3.2 | 6.4 | 0.00 | 0.00 | 0.00 | 86 | 1008.3 |
| 20260506200659 | 18 | 331 | 4.8 | 4.8 | 0.00 | 0.00 | 0.00 | 87 | 1008.2 |
| 20260506200156 | 18 | 170 | 3.2 | 6.4 | 0.00 | 0.00 | 0.00 | 86 | 1008.3 |
| 20260506195653 | 18 | 157 | 1.6 | 9.7 | 0.00 | 0.00 | 0.00 | 87 | 1008.3 |
| 20260506195149 | 17 | 162 | 0.0 | 8.0 | 0.00 | 0.00 | 0.00 | 88 | 1008.0 |
| 20260506194647 | 17 | 314 | 1.6 | 6.4 | 0.00 | 0.00 | 0.00 | 89 | 1008.3 |
| 20260506194142 | 17 | 212 | 6.4 | 8.0 | 0.00 | 0.00 | 0.00 | 90 | 1008.4 |
| 20260506193641 | 17 | 222 | 4.8 | 6.4 | 0.00 | 0.00 | 0.00 | 90 | 1008.4 |
| 20260506193137 | 17 | 173 | 3.2 | 11.3 | 0.00 | 0.00 | 0.00 | 89 | 1008.3 |
| 20260506192634 | 17 | 234 | 4.8 | 9.7 | 0.00 | 0.00 | 0.00 | 89 | 1008.4 |
| 20260506192130 | 17 | 257 | 4.8 | 14.5 | 0.00 | 0.00 | 0.00 | 88 | 1008.3 |
| 20260506191627 | 17 | 204 | 8.0 | 11.3 | 0.00 | 0.00 | 0.00 | 87 | 1008.6 |
| 20260506191123 | 17 | 97 | 1.6 | 6.4 | 0.00 | 0.00 | 0.00 | 88 | 1008.6 |
| 20260506190621 | 17 | 238 | 1.6 | 11.3 | 0.00 | 0.00 | 0.00 | 87 | 1008.8 |
| 20260506190117 | 17 | 354 | 3.2 | 4.8 | 0.00 | 0.00 | 0.00 | 88 | 1008.6 |